[[{"header":{"parameterUnit":"m.s-1","parameterCategory":2,"la1":30.2991,"la2":30.254,"lo1":-89.0895,"lo2":-89.0444,"dy":0.0017,"dx":0.0017,"nx":28,"ny":28,"refTime":"2025-03-24T03:00:00:Z","depth":"0","parameterNumber":2,"parameterNumberName":"U-component_of_CURRENTS"},"data":[0,0,0,0,0,0,0,0,0,0,0,0,0,0,0,0,0,0,0,0,0,0,0,0,0,0,0,0,0,0,0,0,0,0,0,0,0,0,0,0,0,0,0,0,0,0,0,0,0,0,0,0,0,0,0,0,0,0,-0.2301,-0.2301,0,-0.2344,-0.2344,-0.2344,-0.2317,-0.2316,-0.2315,-0.2314,-0.224,-0.2239,-0.2238,0,0,0,0,0,0,0,0,0,0,0,0,0,-0.219,-0.2192,-0.23,-0.2301,-0.2302,-0.2344,-0.2344,-0.2344,-0.2317,-0.2316,-0.2315,-0.2314,-0.2241,-0.2239,-0.2238,0,0,0,0,0,0,0,0,0,0,0,0,0,-0.2232,-0.2192,-0.23,-0.2297,-0.2298,-0.2344,-0.2344,-0.2344,-0.2317,-0.2316,-0.2315,-0.2313,-0.2241,-0.2239,-0.2238,-0.2253,0,0,-0.2232,-0.2232,0,0,0,0,0,0,0,0,-0.223,-0.2235,-0.2297,-0.2297,-0.2298,-0.2327,-0.2278,-0.2309,-0.2317,-0.2305,-0.2314,-0.2313,-0.2262,-0.2259,-0.2265,-0.225,-0.2247,-0.2232,-0.2231,-0.223,-0.223,0,0,0,0,0,0,0,-0.2227,-0.2233,-0.2313,-0.2298,-0.2299,-0.2292,-0.2296,-0.2284,-0.2285,-0.2306,-0.2305,-0.2318,-0.2261,-0.2267,-0.2263,-0.2245,-0.2232,-0.2231,-0.223,-0.2229,-0.2226,-0.2227,0,0,0,0,0,0,-0.2233,-0.2231,-0.2312,-0.2315,-0.2265,-0.2296,-0.23,-0.2316,-0.2288,-0.2284,-0.2319,-0.2316,-0.2271,-0.2265,-0.226,-0.2268,-0.2231,-0.2229,-0.2228,-0.2225,-0.2227,-0.2228,0,0,0,0,0,0,-0.223,-0.2239,-0.231,-0.2277,-0.2286,-0.23,-0.2317,-0.2317,-0.232,-0.2299,-0.2292,-0.2321,-0.2269,-0.2263,-0.2258,-0.2265,-0.2228,-0.2227,-0.2224,-0.2226,-0.2227,-0.2288,0,0,0,0,0,0,-0.2227,-0.2238,-0.2245,-0.2278,-0.2288,-0.2339,-0.2319,-0.2319,-0.2332,-0.2329,-0.2299,-0.2292,-0.2268,-0.2261,-0.2256,-0.2262,-0.2225,-0.2223,-0.2225,-0.2227,-0.2285,-0.2292,-0.2297,0,0,0,0,0,-0.2223,-0.224,-0.2245,-0.2255,-0.2299,-0.2341,-0.2345,-0.2347,-0.2334,-0.2342,-0.2326,-0.2292,-0.2268,-0.2261,-0.2255,-0.226,-0.2222,-0.2224,-0.2227,-0.2282,-0.229,-0.2297,0,0,0,0,0,0,-0.2186,-0.224,-0.2246,-0.2276,-0.2307,-0.2338,-0.2347,-0.2352,-0.2349,-0.2339,-0.231,-0.2302,-0.2298,-0.2277,-0.2269,-0.2266,-0.2238,-0.2239,-0.2282,-0.2289,-0.2296,-0.2283,-0.2224,0,0,0,0,0,-0.2187,-0.2214,-0.2262,-0.2282,-0.2302,-0.2325,-0.2339,-0.2347,-0.2356,-0.2353,-0.2337,-0.2318,-0.2306,-0.2296,-0.2282,-0.2284,-0.226,-0.2283,-0.2289,-0.2294,-0.2281,-0.2248,-0.2249,-0.2235,-0.2235,-0.2235,0,0,-0.2174,-0.221,-0.2222,-0.2276,-0.2298,-0.2334,-0.2329,-0.2359,-0.2378,-0.2345,-0.2354,-0.2339,-0.2312,-0.2315,-0.231,-0.2295,-0.2296,-0.2297,-0.2302,-0.2285,-0.225,-0.2251,-0.2252,-0.2236,-0.2236,-0.2236,0,0,-0.217,-0.2202,-0.2224,-0.2264,-0.2313,-0.2336,-0.2348,-0.2386,-0.239,-0.2409,-0.2386,-0.2379,-0.2366,-0.2351,-0.234,-0.2372,-0.233,-0.2367,-0.2385,-0.2354,-0.2354,-0.2354,-0.2367,-0.2367,-0.2369,-0.2369,-0.2369,0,-0.2149,-0.2192,-0.2234,-0.2275,-0.2308,-0.234,-0.2373,-0.2393,-0.242,-0.2423,-0.2415,-0.24,-0.2381,-0.2377,-0.2387,-0.2384,-0.2369,-0.236,-0.236,-0.2359,-0.2358,-0.237,-0.237,-0.2372,-0.2372,-0.2372,-0.2371,0,-0.2169,-0.2207,-0.2228,-0.2292,-0.2332,-0.2369,-0.2417,-0.2438,-0.2448,-0.2459,-0.2462,-0.2448,-0.2431,-0.2434,-0.2417,-0.2405,-0.2403,-0.2373,-0.2339,-0.2363,-0.2376,-0.2374,-0.2377,-0.2376,-0.2375,-0.2374,0,0,-0.2113,-0.2218,-0.2225,-0.2263,-0.2348,-0.2384,-0.2424,-0.2465,-0.2476,-0.2495,-0.2499,-0.2493,-0.2478,-0.2464,-0.2449,-0.2426,-0.2425,-0.2396,-0.2392,-0.2405,-0.2384,-0.2367,-0.2364,-0.2388,-0.2387,-0.2386,-0.2412,0,-0.2111,-0.2183,-0.224,-0.2306,-0.2352,-0.241,-0.2445,-0.2485,-0.2503,-0.2516,-0.2508,-0.2502,-0.2493,-0.248,-0.2461,-0.242,-0.2416,-0.2422,-0.236,-0.2359,-0.2337,-0.2359,-0.2149,-0.215,-0.241,-0.2409,-0.2409,0,-0.2111,-0.2166,-0.2223,-0.2325,-0.2348,-0.2387,-0.2449,-0.2487,-0.2516,-0.2523,-0.2523,-0.2514,-0.25,-0.2478,-0.2438,-0.2439,-0.2415,-0.2393,-0.2392,-0.2343,-0.2337,-0.216,-0.2137,-0.2038,-0.2406,-0.2406,-0.2407,0,-0.2052,-0.2157,-0.2198,-0.2236,-0.2344,-0.2371,-0.2426,-0.2475,-0.2495,-0.2518,-0.2513,-0.2512,-0.249,-0.246,-0.2435,-0.2421,-0.2392,-0.2365,-0.2344,-0.2345,-0.2135,-0.2119,-0.1995,-0.2334,-0.2334,-0.2334,-0.2334,0,-0.2034,-0.2071,-0.2173,-0.2198,-0.2254,-0.2342,-0.238,-0.2428,-0.2467,-0.2473,-0.2502,-0.2493,-0.2472,-0.2462,-0.2442,-0.24,-0.2402,-0.2347,-0.2338,-0.2159,-0.2144,-0.2023,-0.2046,-0.2335,-0.2335,-0.2335,-0.2335,0,-0.1959,-0.2025,-0.2079,-0.2185,-0.2225,-0.2259,-0.2363,-0.2381,-0.2424,-0.243,-0.243,-0.2459,-0.2455,-0.2468,-0.243,-0.2395,-0.2302,-0.2359,-0.2183,-0.2152,-0.202,-0.2056,-0.202,-0.1975,-0.2318,-0.2318,-0.2317,0,-0.193,-0.1944,-0.2046,-0.2084,-0.2131,-0.2205,-0.2251,-0.234,-0.2357,-0.2402,-0.239,-0.2411,-0.2419,-0.2409,-0.2331,-0.2314,-0.2299,-0.2129,-0.2054,-0.1983,-0.2016,-0.2071,-0.204,-0.182,-0.1816,-0.1812,-0.1809,0,-0.1861,-0.188,-0.1918,-0.2001,-0.2058,-0.2128,-0.2201,-0.2208,-0.2286,-0.2299,-0.2316,-0.2333,-0.231,-0.2183,-0.2173,-0.2133,-0.2018,-0.2056,-0.198,-0.162,-0.1667,-0.1628,-0.1889,-0.1777,-0.178,-0.1782,-0.1784,-0.1785,-0.1793,-0.179,-0.1838,-0.191,-0.1984,-0.2036,-0.2044,-0.2108,-0.2132,-0.2115,-0.2202,-0.2152,-0.2012,-0.1949,-0.1915,-0.1655,-0.1837,-0.1543,-0.1602,-0.1672,-0.1587,-0.1826,-0.171,-0.1713,-0.1715,-0.1717,-0.1719,0,-0.1709,-0.1715,-0.1766,-0.1837,-0.1883,-0.1954,-0.1996,-0.1967,-0.1957,-0.1951,-0.1961,-0.1772,-0.1618,-0.1492,-0.122,-0.115,-0.1135,-0.115,-0.11,-0.1098,-0.1246,-0.1173,-0.0934,-0.0934,-0.0934,-0.0934,-0.0934,-0.0934,-0.1664,-0.1648,-0.167,-0.1715,-0.1774,-0.177,-0.1764,-0.1727,-0.1692,-0.1551,-0.1421,-0.1384,-0.118,-0.1045,-0.0821,-0.0794,-0.0791,-0.0804,-0.0938,-0.093,-0.0968,-0.1004,-0.0932,-0.0647,-0.0647,-0.0642,-0.0642,-0.0642]},{"header":{"parameterUnit":"m.s-1","parameterCategory":2,"la1":30.2991,"la2":30.254,"lo1":-89.0895,"lo2":-89.0444,"dy":0.0017,"dx":0.0017,"nx":28,"ny":28,"refTime":"2025-03-24T03:00:00:Z","depth":"0","parameterNumber":3,"parameterNumberName":"V-component_of_CURRENTS"},"data":[0,0,0,0,0,0,0,0,0,0,0,0,0,0,0,0,0,0,0,0,0,0,0,0,0,0,0,0,0,0,0,0,0,0,0,0,0,0,0,0,0,0,0,0,0,0,0,0,0,0,0,0,0,0,0,0,0,0,-0.1829,-0.1829,0,-0.179,-0.179,-0.179,-0.1767,-0.1767,-0.1766,-0.1766,-0.1601,-0.1597,-0.1593,0,0,0,0,0,0,0,0,0,0,0,0,0,-0.1841,-0.1841,-0.1829,-0.1829,-0.1828,-0.179,-0.179,-0.1789,-0.1767,-0.1767,-0.1766,-0.1766,-0.1603,-0.1598,-0.1593,0,0,0,0,0,0,0,0,0,0,0,0,0,-0.1826,-0.1841,-0.183,-0.1809,-0.1807,-0.179,-0.179,-0.1789,-0.1767,-0.1767,-0.1766,-0.1766,-0.1604,-0.1598,-0.1592,-0.1568,0,0,-0.1574,-0.1571,0,0,0,0,0,0,0,0,-0.1826,-0.1826,-0.1813,-0.1811,-0.1808,-0.178,-0.1733,-0.1708,-0.1768,-0.1786,-0.1766,-0.1765,-0.1647,-0.1638,-0.1639,-0.156,-0.1553,-0.1573,-0.157,-0.1567,-0.1565,0,0,0,0,0,0,0,-0.1828,-0.1827,-0.1818,-0.1812,-0.1809,-0.1786,-0.1785,-0.1729,-0.1721,-0.1785,-0.1782,-0.1772,-0.1645,-0.1645,-0.1634,-0.155,-0.1574,-0.1568,-0.1565,-0.1562,-0.1369,-0.1367,0,0,0,0,0,0,-0.1828,-0.1828,-0.1819,-0.1816,-0.1812,-0.1787,-0.1785,-0.1792,-0.1725,-0.1714,-0.1773,-0.1771,-0.1655,-0.1641,-0.1628,-0.1548,-0.1567,-0.1562,-0.1558,-0.137,-0.1369,-0.1367,0,0,0,0,0,0,-0.1829,-0.1829,-0.182,-0.1817,-0.1814,-0.1787,-0.1796,-0.1792,-0.1788,-0.1716,-0.1703,-0.1772,-0.1654,-0.1636,-0.1567,-0.1543,-0.1559,-0.1553,-0.1372,-0.137,-0.1368,-0.1416,0,0,0,0,0,0,-0.183,-0.183,-0.1845,-0.1818,-0.1814,-0.1812,-0.1796,-0.1791,-0.1781,-0.1779,-0.1711,-0.1696,-0.1652,-0.1576,-0.1561,-0.1535,-0.1549,-0.1374,-0.1371,-0.1368,-0.1417,-0.1416,-0.1415,0,0,0,0,0,-0.1831,-0.1852,-0.1846,-0.1845,-0.1833,-0.1812,-0.1809,-0.1789,-0.1782,-0.1784,-0.1727,-0.1698,-0.1546,-0.157,-0.1553,-0.1524,-0.1376,-0.1372,-0.1369,-0.1417,-0.1416,-0.1415,0,0,0,0,0,0,-0.1859,-0.1851,-0.1844,-0.186,-0.1837,-0.1807,-0.1806,-0.1793,-0.1756,-0.175,-0.1684,-0.1665,-0.1593,-0.1549,-0.1578,-0.1457,-0.1453,-0.1446,-0.1496,-0.1494,-0.1494,-0.1502,-0.1544,0,0,0,0,0,-0.1873,-0.189,-0.1865,-0.1874,-0.1865,-0.1838,-0.1829,-0.1816,-0.1775,-0.1761,-0.1702,-0.1633,-0.1567,-0.1526,-0.1465,-0.1403,-0.1388,-0.1368,-0.1368,-0.1368,-0.136,-0.1313,-0.1309,-0.1356,-0.1356,-0.1356,0,0,-0.188,-0.188,-0.1886,-0.1881,-0.1862,-0.1851,-0.1832,-0.1821,-0.1799,-0.1743,-0.1689,-0.1632,-0.155,-0.1481,-0.1444,-0.144,-0.1354,-0.1364,-0.1365,-0.1356,-0.1309,-0.1305,-0.1301,-0.1353,-0.1354,-0.1354,0,0,-0.1899,-0.1906,-0.1922,-0.1911,-0.1891,-0.1868,-0.1865,-0.1829,-0.1803,-0.1752,-0.1696,-0.1623,-0.1532,-0.1461,-0.1416,-0.137,-0.1357,-0.135,-0.1348,-0.1304,-0.13,-0.1297,-0.1318,-0.1316,-0.1346,-0.1346,-0.1346,0,-0.1904,-0.1928,-0.1919,-0.1926,-0.1911,-0.1875,-0.187,-0.184,-0.1781,-0.1744,-0.1737,-0.1584,-0.1518,-0.1416,-0.1398,-0.1369,-0.1369,-0.1366,-0.1307,-0.1303,-0.1298,-0.132,-0.1317,-0.1348,-0.1347,-0.1347,-0.1347,0,-0.1936,-0.1948,-0.195,-0.1947,-0.1929,-0.1921,-0.1872,-0.1837,-0.1798,-0.1758,-0.1662,-0.1577,-0.1482,-0.1447,-0.1409,-0.133,-0.1352,-0.1322,-0.132,-0.1297,-0.1321,-0.1318,-0.135,-0.135,-0.1349,-0.1349,0,0,-0.1962,-0.1971,-0.1974,-0.1969,-0.1942,-0.1925,-0.1877,-0.1817,-0.178,-0.1713,-0.1658,-0.1531,-0.149,-0.1434,-0.137,-0.1323,-0.1305,-0.1314,-0.1311,-0.1357,-0.1263,-0.1155,-0.1141,-0.1273,-0.1272,-0.127,-0.1311,0,-0.1983,-0.2012,-0.1999,-0.1989,-0.199,-0.1933,-0.1888,-0.1829,-0.177,-0.1708,-0.1611,-0.154,-0.1483,-0.1445,-0.1383,-0.1319,-0.129,-0.13,-0.1258,-0.1257,-0.118,-0.1129,-0.0987,-0.0997,-0.1307,-0.1306,-0.1306,0,-0.2017,-0.2036,-0.2047,-0.201,-0.2,-0.198,-0.19,-0.1856,-0.1759,-0.1714,-0.1626,-0.1566,-0.1467,-0.1438,-0.1325,-0.1341,-0.1303,-0.1265,-0.1265,-0.1136,-0.1137,-0.1057,-0.0979,-0.08,-0.13,-0.13,-0.1301,0,-0.2053,-0.2053,-0.2064,-0.2059,-0.2019,-0.199,-0.195,-0.1861,-0.1815,-0.1725,-0.1704,-0.1578,-0.1541,-0.1445,-0.1351,-0.1347,-0.126,-0.1245,-0.112,-0.1117,-0.0967,-0.095,-0.0717,-0.1172,-0.1172,-0.1172,-0.1172,0,-0.208,-0.2083,-0.2086,-0.2097,-0.208,-0.2033,-0.1985,-0.1926,-0.1852,-0.1818,-0.1717,-0.1684,-0.1541,-0.147,-0.1377,-0.1231,-0.1278,-0.1106,-0.1092,-0.0983,-0.0967,-0.078,-0.0745,-0.1173,-0.1173,-0.1173,-0.1172,0,-0.2103,-0.2113,-0.2124,-0.2111,-0.2102,-0.2089,-0.2024,-0.1987,-0.1926,-0.1888,-0.187,-0.1775,-0.1675,-0.1536,-0.1406,-0.127,-0.1019,-0.1088,-0.0996,-0.0965,-0.0632,-0.0607,-0.0429,-0.0342,-0.0943,-0.094,-0.0938,0,-0.2109,-0.2131,-0.215,-0.2159,-0.2152,-0.2127,-0.2103,-0.2029,-0.2002,-0.1947,-0.1944,-0.1852,-0.1771,-0.153,-0.125,-0.104,-0.095,-0.08,-0.0716,-0.0562,-0.0527,-0.054,-0.0482,-0.0584,-0.0578,-0.0574,-0.0571,0,-0.2118,-0.2135,-0.2154,-0.2196,-0.2191,-0.2173,-0.2148,-0.2145,-0.2077,-0.2065,-0.2047,-0.1987,-0.17,-0.1362,-0.1035,-0.0885,-0.062,-0.0705,-0.0544,-0.02,-0.0201,-0.0128,-0.0676,-0.0533,-0.0537,-0.054,-0.0542,-0.0543,-0.2113,-0.2139,-0.2181,-0.2209,-0.2217,-0.2223,-0.2214,-0.2211,-0.22,-0.2159,-0.2119,-0.1935,-0.1411,-0.0898,-0.074,-0.0213,-0.0351,-0.0049,-0.004,-0.0076,0.0078,-0.0402,-0.0226,-0.0228,-0.0229,-0.0231,-0.0232,0,-0.2094,-0.2136,-0.218,-0.222,-0.2239,-0.2233,-0.2237,-0.2224,-0.2249,-0.2128,-0.2082,-0.1422,-0.0944,-0.0451,0.0245,0.0467,0.0467,0.0546,0.058,0.06,0.0205,0.0301,0.0602,0.0601,0.0601,0.0601,0.0601,0.0601,-0.2082,-0.2128,-0.2171,-0.2223,-0.2249,-0.226,-0.2266,-0.2255,-0.2152,-0.1845,-0.1441,-0.1116,-0.0291,0.0439,0.0989,0.1023,0.113,0.1113,0.1104,0.0874,0.0819,0.0767,0.0873,0.1289,0.129,0.1543,0.1546,0.1548]}],[{"header":{"parameterUnit":"m.s-1","parameterCategory":2,"la1":30.2991,"la2":30.254,"lo1":-89.0895,"lo2":-89.0444,"dy":0.0017,"dx":0.0017,"nx":28,"ny":28,"refTime":"2025-03-24T03:00:00:Z","depth":"2","parameterNumber":2,"parameterNumberName":"U-component_of_CURRENTS"},"data":[0,0,0,0,0,0,0,0,0,0,0,0,0,0,0,0,0,0,0,0,0,0,0,0,0,0,0,0,0,0,0,0,0,0,0,0,0,0,0,0,0,0,0,0,0,0,0,0,0,0,0,0,0,0,0,0,0,0,-0.1921,-0.1922,0,-0.2047,-0.205,-0.2052,-0.2167,-0.2167,-0.2167,-0.2167,-0.2102,-0.21,-0.2098,0,0,0,0,0,0,0,0,0,0,0,0,0,-0.1733,-0.1738,-0.1921,-0.1922,-0.1922,-0.2047,-0.205,-0.2053,-0.2167,-0.2167,-0.2167,-0.2168,-0.2103,-0.21,-0.2098,0,0,0,0,0,0,0,0,0,0,0,0,0,-0.1844,-0.1739,-0.1921,-0.1985,-0.1991,-0.2046,-0.205,-0.2054,-0.2167,-0.2167,-0.2167,-0.2168,-0.2103,-0.21,-0.2097,-0.2071,0,0,-0.2088,-0.2087,0,0,0,0,0,0,0,0,-0.1838,-0.1853,-0.1975,-0.1981,-0.1988,-0.2081,-0.1959,-0.2046,-0.2166,-0.2113,-0.2167,-0.2168,-0.2069,-0.2069,-0.2112,-0.2068,-0.2065,-0.2088,-0.2086,-0.2085,-0.2084,0,0,0,0,0,0,0,-0.183,-0.1847,-0.1983,-0.1975,-0.1983,-0.1991,-0.2009,-0.1978,-0.2093,-0.2117,-0.2123,-0.2118,-0.2073,-0.2115,-0.211,-0.2064,-0.2088,-0.2085,-0.2084,-0.2082,-0.2053,-0.2054,0,0,0,0,0,0,-0.1793,-0.1841,-0.1979,-0.1986,-0.1899,-0.1993,-0.2014,-0.2061,-0.2097,-0.2102,-0.2117,-0.2122,-0.2119,-0.2113,-0.2108,-0.2134,-0.2085,-0.2082,-0.208,-0.2052,-0.2053,-0.2054,0,0,0,0,0,0,-0.179,-0.1807,-0.1974,-0.1903,-0.1923,-0.1995,-0.2047,-0.2062,-0.2129,-0.2097,-0.21,-0.2168,-0.212,-0.2112,-0.2101,-0.2129,-0.2081,-0.2078,-0.2051,-0.2052,-0.2054,-0.2148,0,0,0,0,0,0,-0.1785,-0.1806,-0.1878,-0.1902,-0.1926,-0.2039,-0.2046,-0.2064,-0.2117,-0.2127,-0.214,-0.2135,-0.2119,-0.2106,-0.2098,-0.2124,-0.2076,-0.205,-0.2052,-0.2053,-0.2143,-0.2152,-0.216,0,0,0,0,0,-0.1779,-0.1858,-0.1883,-0.19,-0.2008,-0.2039,-0.2056,-0.2112,-0.2119,-0.2171,-0.2161,-0.2136,-0.2113,-0.2104,-0.2095,-0.212,-0.2049,-0.2051,-0.2053,-0.2139,-0.215,-0.2159,0,0,0,0,0,0,-0.1859,-0.1876,-0.1904,-0.2002,-0.203,-0.2055,-0.2108,-0.2123,-0.2166,-0.2171,-0.2141,-0.2135,-0.2141,-0.2111,-0.2102,-0.2118,-0.2079,-0.2079,-0.2148,-0.2157,-0.2165,-0.2156,-0.2073,0,0,0,0,0,-0.1894,-0.1939,-0.196,-0.2044,-0.2052,-0.2082,-0.2115,-0.214,-0.215,-0.2176,-0.217,-0.2156,-0.2141,-0.2134,-0.2122,-0.2118,-0.2064,-0.213,-0.2139,-0.2146,-0.2132,-0.2066,-0.2067,-0.2062,-0.2062,-0.2062,0,0,-0.1939,-0.1961,-0.199,-0.2058,-0.2084,-0.2118,-0.2109,-0.2155,-0.2185,-0.2148,-0.22,-0.2184,-0.2147,-0.2161,-0.216,-0.2139,-0.2126,-0.2149,-0.2155,-0.2137,-0.2068,-0.2068,-0.2068,-0.2064,-0.2063,-0.2063,0,0,-0.2003,-0.2074,-0.211,-0.2136,-0.2164,-0.2175,-0.2184,-0.2213,-0.2239,-0.2262,-0.2244,-0.2237,-0.2228,-0.2213,-0.2196,-0.2232,-0.2173,-0.2241,-0.2272,-0.221,-0.2209,-0.2207,-0.2169,-0.2163,-0.2244,-0.2244,-0.2244,0,-0.2065,-0.2119,-0.2131,-0.2169,-0.2182,-0.2193,-0.2221,-0.2257,-0.2284,-0.2269,-0.2287,-0.226,-0.2248,-0.2224,-0.2262,-0.2249,-0.2211,-0.2241,-0.2219,-0.2216,-0.2213,-0.2173,-0.2166,-0.2249,-0.2248,-0.2248,-0.2247,0,-0.2117,-0.2188,-0.2206,-0.2247,-0.2277,-0.2303,-0.231,-0.234,-0.2346,-0.235,-0.2339,-0.2331,-0.2295,-0.2317,-0.2308,-0.2287,-0.2269,-0.2239,-0.2193,-0.2219,-0.2176,-0.2167,-0.2255,-0.2254,-0.2252,-0.2251,0,0,-0.2138,-0.2225,-0.2225,-0.2249,-0.2307,-0.2309,-0.2355,-0.2355,-0.2324,-0.2384,-0.2338,-0.2374,-0.235,-0.2329,-0.2318,-0.2296,-0.2275,-0.2276,-0.2271,-0.2237,-0.2154,-0.207,-0.2051,-0.2242,-0.2241,-0.2239,-0.2144,0,-0.2161,-0.223,-0.226,-0.231,-0.2336,-0.2353,-0.2363,-0.2371,-0.2362,-0.233,-0.233,-0.2294,-0.2358,-0.2325,-0.2325,-0.2271,-0.225,-0.2305,-0.2133,-0.2128,-0.2048,-0.2036,-0.1899,-0.1794,-0.2134,-0.2132,-0.2131,0,-0.2156,-0.2206,-0.2263,-0.2292,-0.2292,-0.2326,-0.2281,-0.23,-0.2273,-0.2253,-0.2249,-0.2225,-0.2226,-0.225,-0.2209,-0.2243,-0.2209,-0.2183,-0.2177,-0.205,-0.2024,-0.1816,-0.1763,-0.2113,-0.2115,-0.2116,-0.2117,0,-0.2087,-0.2173,-0.2206,-0.2232,-0.2288,-0.2287,-0.23,-0.2277,-0.2221,-0.2204,-0.2147,-0.215,-0.2121,-0.2105,-0.21,-0.2137,-0.2023,-0.2045,-0.194,-0.1935,-0.1755,-0.1736,-0.1979,-0.1979,-0.1979,-0.1979,-0.198,0,-0.2067,-0.208,-0.2181,-0.2202,-0.2181,-0.2242,-0.2174,-0.2185,-0.2127,-0.2046,-0.2105,-0.2034,-0.208,-0.203,-0.2043,-0.1961,-0.1971,-0.1928,-0.189,-0.1788,-0.1774,-0.1994,-0.1998,-0.1976,-0.1977,-0.1977,-0.1978,0,-0.1979,-0.2061,-0.2083,-0.2149,-0.2161,-0.2143,-0.2104,-0.2031,-0.203,-0.1927,-0.1915,-0.1918,-0.189,-0.1902,-0.1851,-0.1854,-0.1792,-0.1751,-0.1649,-0.16,-0.177,-0.1779,-0.1627,-0.1622,-0.1619,-0.1616,-0.1614,0,-0.1943,-0.1959,-0.2019,-0.2012,-0.2048,-0.2031,-0.1988,-0.1983,-0.1902,-0.1849,-0.1781,-0.1746,-0.1689,-0.1615,-0.1601,-0.1555,-0.166,-0.1404,-0.1445,-0.1748,-0.1727,-0.1742,-0.1755,-0.1262,-0.1257,-0.1253,-0.125,0,-0.1845,-0.1865,-0.1882,-0.1884,-0.1869,-0.1793,-0.1759,-0.1687,-0.1666,-0.1619,-0.1543,-0.15,-0.1448,-0.1349,-0.1304,-0.1279,-0.141,-0.1316,-0.1599,-0.1379,-0.1397,-0.138,-0.1406,-0.1213,-0.1216,-0.1219,-0.1221,-0.1222,-0.1732,-0.171,-0.1731,-0.171,-0.1672,-0.1556,-0.1473,-0.1441,-0.1339,-0.1277,-0.1316,-0.1244,-0.1226,-0.1089,-0.1033,-0.1018,-0.114,-0.1116,-0.1131,-0.115,-0.1131,-0.1142,-0.0908,-0.091,-0.0912,-0.0913,-0.0914,0,-0.1578,-0.1574,-0.1547,-0.149,-0.1371,-0.1404,-0.1291,-0.1204,-0.112,-0.1119,-0.1078,-0.0923,-0.0828,-0.083,-0.0735,-0.0722,-0.0751,-0.0707,-0.0748,-0.0783,-0.0815,-0.0784,-0.0465,-0.0464,-0.0463,-0.0462,0,0,-0.1498,-0.1425,-0.1421,-0.1211,-0.1157,-0.0979,-0.0907,-0.0856,-0.0825,-0.0793,-0.0766,-0.0802,-0.0781,-0.0619,-0.0588,-0.0513,-0.0652,-0.0485,-0.084,-0.0923,-0.0954,-0.1037,-0.1025,0,0,0,0,0]},{"header":{"parameterUnit":"m.s-1","parameterCategory":2,"la1":30.2991,"la2":30.254,"lo1":-89.0895,"lo2":-89.0444,"dy":0.0017,"dx":0.0017,"nx":28,"ny":28,"refTime":"2025-03-24T03:00:00:Z","depth":"2","parameterNumber":3,"parameterNumberName":"V-component_of_CURRENTS"},"data":[0,0,0,0,0,0,0,0,0,0,0,0,0,0,0,0,0,0,0,0,0,0,0,0,0,0,0,0,0,0,0,0,0,0,0,0,0,0,0,0,0,0,0,0,0,0,0,0,0,0,0,0,0,0,0,0,0,0,0.0304,0.0305,0,0.0443,0.0445,0.0448,0.055,0.055,0.055,0.055,0.0579,0.0579,0.058,0,0,0,0,0,0,0,0,0,0,0,0,0,0.0248,0.0248,0.0304,0.0305,0.0306,0.0443,0.0445,0.0448,0.055,0.055,0.055,0.055,0.0578,0.0579,0.058,0,0,0,0,0,0,0,0,0,0,0,0,0,0.0328,0.0249,0.0304,0.0365,0.0371,0.0442,0.0446,0.0449,0.055,0.055,0.055,0.055,0.0578,0.0579,0.058,0.0591,0,0,0.0584,0.0585,0,0,0,0,0,0,0,0,0.0323,0.0331,0.0356,0.0361,0.0368,0.047,0.0436,0.0487,0.055,0.0494,0.055,0.055,0.0525,0.0531,0.0574,0.0592,0.0593,0.0584,0.0585,0.0586,0.0586,0,0,0,0,0,0,0,0.0317,0.0326,0.037,0.0356,0.0364,0.0426,0.0437,0.0448,0.0514,0.0499,0.0504,0.0502,0.0529,0.0573,0.0575,0.0594,0.0584,0.0585,0.0586,0.0587,0.0621,0.0622,0,0,0,0,0,0,0.0272,0.032,0.0365,0.0373,0.0333,0.0426,0.0439,0.0446,0.0517,0.0526,0.0502,0.0506,0.0571,0.0573,0.0576,0.0593,0.0586,0.0587,0.0588,0.0621,0.0621,0.0622,0,0,0,0,0,0,0.0271,0.0276,0.036,0.0341,0.0355,0.0425,0.0433,0.0448,0.049,0.0519,0.0528,0.0525,0.0571,0.0574,0.0584,0.0594,0.0587,0.0588,0.0621,0.0621,0.0622,0.0625,0,0,0,0,0,0,0.0269,0.0275,0.029,0.0338,0.0354,0.0391,0.0433,0.0451,0.0484,0.0491,0.0541,0.0545,0.0571,0.0582,0.0585,0.0596,0.0589,0.0621,0.0621,0.0621,0.0625,0.0626,0.0626,0,0,0,0,0,0.0267,0.0276,0.0291,0.0297,0.0364,0.039,0.0406,0.0463,0.0484,0.0501,0.0535,0.0543,0.0586,0.0583,0.0587,0.0598,0.0621,0.0621,0.0621,0.0625,0.0626,0.0626,0,0,0,0,0,0,0.0273,0.0288,0.0305,0.0323,0.0347,0.0403,0.0425,0.0456,0.0505,0.0507,0.0543,0.0549,0.0567,0.0574,0.0569,0.0608,0.0605,0.0606,0.0606,0.0607,0.0608,0.0596,0.0591,0,0,0,0,0,0.0273,0.0277,0.0302,0.0316,0.0322,0.0373,0.0398,0.0426,0.0459,0.0484,0.0516,0.0545,0.0574,0.0581,0.0606,0.0618,0.0618,0.0627,0.0628,0.0628,0.0621,0.0624,0.0624,0.0623,0.0623,0.0623,0,0,0.0272,0.0285,0.0287,0.0316,0.0343,0.0356,0.0391,0.041,0.0433,0.0472,0.0515,0.0546,0.0577,0.0606,0.0613,0.0611,0.0631,0.0629,0.0629,0.0621,0.0624,0.0624,0.0624,0.0623,0.0623,0.0623,0,0,0.0254,0.0285,0.0273,0.0293,0.0313,0.0346,0.0341,0.0386,0.0421,0.045,0.0494,0.0531,0.0562,0.0607,0.0627,0.0639,0.0636,0.0638,0.0632,0.0635,0.0635,0.0635,0.0646,0.0647,0.0637,0.0637,0.0637,0,0.0256,0.0249,0.0276,0.0275,0.0285,0.033,0.0322,0.0371,0.042,0.0432,0.0451,0.0529,0.057,0.061,0.0633,0.0643,0.0635,0.0629,0.0635,0.0635,0.0635,0.0646,0.0647,0.0637,0.0637,0.0637,0.0637,0,0.0221,0.0229,0.0222,0.0235,0.0256,0.0255,0.0299,0.0325,0.0362,0.0405,0.0444,0.0514,0.0554,0.0585,0.0621,0.0645,0.0638,0.0638,0.0633,0.0635,0.0647,0.0648,0.0638,0.0637,0.0637,0.0637,0,0,0.0171,0.0191,0.0185,0.0183,0.023,0.0231,0.0264,0.0292,0.0292,0.0371,0.0371,0.0485,0.052,0.0546,0.0599,0.0623,0.0649,0.063,0.063,0.0639,0.0648,0.0645,0.0646,0.0636,0.0636,0.0636,0.0661,0,0.0128,0.0101,0.0132,0.0122,0.0113,0.0167,0.0185,0.0225,0.0264,0.0281,0.0371,0.0399,0.0506,0.0514,0.0567,0.0617,0.0648,0.0642,0.0645,0.0646,0.0641,0.0646,0.0619,0.0638,0.0662,0.0662,0.0662,0,0.0068,0.0063,0.0029,0.0044,0.0041,0.0051,0.006,0.009,0.0142,0.0167,0.0232,0.0284,0.0375,0.0431,0.0552,0.0534,0.0596,0.064,0.0641,0.0633,0.0643,0.0637,0.0639,0.0664,0.0663,0.0663,0.0663,0,-0.0016,-0.0013,-0.005,-0.0041,-0.0012,-0.002,0.0005,0.0047,0.005,0.0093,0.0085,0.0193,0.0239,0.0331,0.0486,0.0495,0.0581,0.0598,0.0657,0.0658,0.0635,0.0633,0.0656,0.0656,0.0656,0.0656,0.0656,0,-0.0079,-0.0105,-0.0095,-0.0112,-0.0147,-0.0097,-0.0123,-0.0091,-0.0074,-0.007,0.0029,0.0051,0.0211,0.0296,0.0424,0.0556,0.0545,0.0654,0.0661,0.0637,0.0635,0.0653,0.0652,0.0657,0.0657,0.0656,0.0656,0,-0.0158,-0.0156,-0.0194,-0.0191,-0.0188,-0.0211,-0.0192,-0.0208,-0.0179,-0.0182,-0.0176,-0.0066,0.0065,0.0218,0.0365,0.0476,0.0588,0.0633,0.0605,0.0608,0.0675,0.0674,0.0682,0.0682,0.0682,0.0682,0.0682,0,-0.0192,-0.023,-0.0261,-0.028,-0.0276,-0.0288,-0.0292,-0.0261,-0.0273,-0.0229,-0.0242,-0.014,-0.0019,0.0197,0.0371,0.0551,0.0589,0.0617,0.0641,0.067,0.0676,0.0675,0.0674,0.062,0.062,0.062,0.0619,0,-0.0254,-0.0285,-0.0318,-0.0359,-0.0377,-0.0389,-0.039,-0.0423,-0.0378,-0.0369,-0.0307,-0.0219,-0.0003,0.0201,0.0411,0.0517,0.0584,0.0613,0.0637,0.0616,0.0613,0.0619,0.062,0.0616,0.0616,0.0616,0.0616,0.0617,-0.0301,-0.0347,-0.0396,-0.043,-0.0446,-0.0466,-0.0481,-0.0478,-0.0482,-0.0437,-0.0334,-0.0151,0.0012,0.0336,0.0449,0.0554,0.0582,0.0628,0.0629,0.063,0.0616,0.0613,0.0614,0.0614,0.0614,0.0615,0.0615,0,-0.034,-0.0394,-0.0443,-0.0485,-0.0501,-0.0498,-0.0526,-0.0528,-0.0512,-0.0415,-0.0305,-0.008,0.0153,0.0323,0.0487,0.0577,0.0571,0.0583,0.0569,0.0573,0.0576,0.0558,0.0541,0.0541,0.0541,0.0541,0,0,-0.0364,-0.0432,-0.0462,-0.0507,-0.0528,-0.0553,-0.0567,-0.056,-0.0498,-0.0405,-0.0249,-0.0012,0.0203,0.0304,0.0401,0.0477,0.0491,0.0471,0.0523,0.0496,0.0497,0.0599,0.0575,0,0,0,0,0]}],[{"header":{"parameterUnit":"m.s-1","parameterCategory":2,"la1":30.2991,"la2":30.254,"lo1":-89.0895,"lo2":-89.0444,"dy":0.0017,"dx":0.0017,"nx":28,"ny":28,"refTime":"2025-03-24T03:00:00:Z","depth":"4","parameterNumber":2,"parameterNumberName":"U-component_of_CURRENTS"},"data":[0,0,0,0,0,0,0,0,0,0,0,0,0,0,0,0,0,0,0,0,0,0,0,0,0,0,0,0,0,0,0,0,0,0,0,0,0,0,0,0,0,0,0,0,0,0,0,0,0,0,0,0,0,0,0,0,0,0,-0.0876,-0.0876,0,-0.0918,-0.0918,-0.0919,-0.0939,-0.0939,-0.0939,-0.0939,-0.0983,-0.0984,-0.0985,0,0,0,0,0,0,0,0,0,0,0,0,0,-0.0851,-0.0851,-0.0876,-0.0876,-0.0877,-0.0918,-0.0918,-0.0919,-0.0939,-0.0939,-0.0939,-0.0939,-0.0983,-0.0984,-0.0985,0,0,0,0,0,0,0,0,0,0,0,0,0,-0.0874,-0.0851,-0.0875,-0.0892,-0.0894,-0.0917,-0.0918,-0.0919,-0.0939,-0.0939,-0.0939,-0.0939,-0.0982,-0.0984,-0.0986,-0.0996,0,0,-0.0991,-0.0992,0,0,0,0,0,0,0,0,-0.0873,-0.0875,-0.0889,-0.0891,-0.0893,-0.0923,-0.0926,-0.0945,-0.0939,-0.0922,-0.0939,-0.0939,-0.0963,-0.0967,-0.0974,-0.0998,-0.1,-0.0991,-0.0992,-0.0993,-0.0993,0,0,0,0,0,0,0,-0.0871,-0.0873,-0.0892,-0.089,-0.0892,-0.091,-0.0913,-0.0929,-0.0942,-0.0923,-0.0925,-0.093,-0.0964,-0.0972,-0.0975,-0.1,-0.0991,-0.0993,-0.0994,-0.0994,-0.1085,-0.1086,0,0,0,0,0,0,-0.0864,-0.0872,-0.0891,-0.0893,-0.0883,-0.0911,-0.0914,-0.0914,-0.0942,-0.0946,-0.093,-0.0931,-0.097,-0.0973,-0.0977,-0.1044,-0.0993,-0.0994,-0.0995,-0.1084,-0.1085,-0.1087,0,0,0,0,0,0,-0.0863,-0.0865,-0.0889,-0.0884,-0.0888,-0.0911,-0.091,-0.0914,-0.094,-0.0947,-0.0951,-0.0953,-0.097,-0.0975,-0.1011,-0.1043,-0.0995,-0.0997,-0.1082,-0.1084,-0.1086,-0.1143,0,0,0,0,0,0,-0.0862,-0.0864,-0.0866,-0.0883,-0.0888,-0.0921,-0.0911,-0.0915,-0.0942,-0.0944,-0.0968,-0.0971,-0.097,-0.1008,-0.1012,-0.1045,-0.0998,-0.108,-0.1083,-0.1085,-0.1139,-0.1146,-0.1153,0,0,0,0,0,-0.0861,-0.0861,-0.0865,-0.0868,-0.0888,-0.0922,-0.0927,-0.0943,-0.0943,-0.0964,-0.0978,-0.0971,-0.1027,-0.1011,-0.1015,-0.1049,-0.1079,-0.1082,-0.1085,-0.1136,-0.1145,-0.1152,0,0,0,0,0,0,-0.0846,-0.0863,-0.0869,-0.0872,-0.0904,-0.0926,-0.094,-0.0955,-0.0982,-0.0985,-0.0989,-0.0994,-0.1035,-0.1035,-0.1017,-0.1083,-0.1052,-0.1056,-0.1089,-0.1098,-0.1104,-0.1093,-0.1,0,0,0,0,0,-0.0843,-0.0849,-0.0877,-0.0881,-0.0898,-0.0924,-0.094,-0.0957,-0.0981,-0.0993,-0.1011,-0.1029,-0.1049,-0.1068,-0.1082,-0.1122,-0.1107,-0.1147,-0.1153,-0.1159,-0.1153,-0.1157,-0.1164,-0.1097,-0.1097,-0.1097,0,0,-0.0833,-0.0847,-0.0847,-0.088,-0.09,-0.0927,-0.0934,-0.0968,-0.0996,-0.0993,-0.1036,-0.1052,-0.1063,-0.1105,-0.1124,-0.1113,-0.1173,-0.1163,-0.1168,-0.1159,-0.1161,-0.1168,-0.1173,-0.1099,-0.1099,-0.1098,0,0,-0.0827,-0.0837,-0.0846,-0.0875,-0.0917,-0.0939,-0.0955,-0.0996,-0.1023,-0.1059,-0.1071,-0.1108,-0.1132,-0.116,-0.1171,-0.1225,-0.1204,-0.1235,-0.1269,-0.1274,-0.1279,-0.1283,-0.1282,-0.1285,-0.1245,-0.1246,-0.1246,0,-0.0815,-0.0832,-0.0857,-0.0882,-0.0908,-0.0946,-0.0976,-0.1007,-0.1057,-0.1084,-0.1075,-0.1133,-0.1153,-0.121,-0.1234,-0.1241,-0.1234,-0.1238,-0.1282,-0.1286,-0.1289,-0.1286,-0.1289,-0.1249,-0.1248,-0.1248,-0.1248,0,-0.0812,-0.084,-0.0852,-0.0892,-0.0929,-0.0961,-0.1011,-0.1051,-0.1078,-0.1106,-0.1166,-0.1193,-0.1228,-0.125,-0.1257,-0.1312,-0.1296,-0.1284,-0.1258,-0.1299,-0.1293,-0.1296,-0.1253,-0.1252,-0.1251,-0.125,0,0,-0.0761,-0.0833,-0.0844,-0.0873,-0.0941,-0.097,-0.1026,-0.1089,-0.1127,-0.1166,-0.1212,-0.1263,-0.1285,-0.13,-0.1332,-0.1348,-0.1379,-0.1334,-0.1333,-0.1326,-0.1385,-0.1292,-0.1285,-0.1374,-0.1375,-0.1375,-0.1375,0,-0.0758,-0.08,-0.0851,-0.0905,-0.0932,-0.0997,-0.1048,-0.1111,-0.1159,-0.1213,-0.1252,-0.13,-0.1305,-0.1337,-0.1356,-0.1375,-0.1386,-0.138,-0.1351,-0.135,-0.1257,-0.1285,-0.1377,-0.1377,-0.1377,-0.1377,-0.1378,0,-0.0744,-0.0779,-0.0827,-0.092,-0.0941,-0.0975,-0.1068,-0.1129,-0.1213,-0.1251,-0.1303,-0.1335,-0.1394,-0.1376,-0.1409,-0.1404,-0.1399,-0.1397,-0.1397,-0.1286,-0.1259,-0.1325,-0.1381,-0.1381,-0.1381,-0.138,-0.138,0,-0.0693,-0.0771,-0.0811,-0.0835,-0.0934,-0.0972,-0.1031,-0.1126,-0.1193,-0.1281,-0.1317,-0.1378,-0.141,-0.1413,-0.1421,-0.1419,-0.1427,-0.1421,-0.1329,-0.1322,-0.1381,-0.1376,-0.1424,-0.1424,-0.1424,-0.1424,-0.1424,0,-0.0665,-0.0699,-0.0779,-0.0801,-0.0837,-0.0938,-0.1012,-0.1071,-0.1189,-0.1256,-0.1335,-0.1372,-0.1417,-0.1433,-0.1428,-0.1378,-0.143,-0.1329,-0.1314,-0.1407,-0.1405,-0.1383,-0.1378,-0.1424,-0.1424,-0.1424,-0.1424,0,-0.0593,-0.0655,-0.0702,-0.0799,-0.0811,-0.0841,-0.0971,-0.1042,-0.1153,-0.1238,-0.1268,-0.1369,-0.138,-0.1408,-0.1415,-0.1374,-0.1347,-0.1315,-0.1414,-0.1404,-0.124,-0.1238,-0.1211,-0.1208,-0.1205,-0.1202,-0.12,0,-0.0551,-0.0559,-0.066,-0.067,-0.0703,-0.0767,-0.0824,-0.0981,-0.1062,-0.1216,-0.1242,-0.1304,-0.1347,-0.1277,-0.1315,-0.1289,-0.1273,-0.1257,-0.1247,-0.1229,-0.1217,-0.122,-0.1222,-0.1196,-0.1195,-0.1194,-0.1194,0,-0.0444,-0.0494,-0.0527,-0.0558,-0.0604,-0.0695,-0.0782,-0.0833,-0.1029,-0.1125,-0.1174,-0.1194,-0.1204,-0.1205,-0.1193,-0.1176,-0.1268,-0.1227,-0.1233,-0.1223,-0.121,-0.1202,-0.1208,-0.1184,-0.1185,-0.1186,-0.1187,0,-0.0356,-0.035,-0.0406,-0.0421,-0.0495,-0.0606,-0.0679,-0.0776,-0.0881,-0.1054,-0.105,-0.1117,-0.1179,-0.1145,-0.1135,-0.1111,-0.1095,-0.1063,-0.1077,-0.1088,-0.1049,-0.1014,-0.0909,0,0,0,0,0,-0.027,-0.0257,-0.0261,-0.0337,-0.0428,-0.0497,-0.0646,-0.0751,-0.0911,-0.0911,-0.0989,-0.0993,-0.0997,-0.1029,-0.0977,-0.1082,-0.11,-0.1018,-0.1071,-0.1129,-0.1141,-0.1106,0,0,0,0,0,0,-0.0227,-0.0211,-0.0225,-0.026,-0.0311,-0.045,-0.0565,-0.0685,-0.0702,-0.0827,-0.0825,-0.0907,-0.0914,-0.0986,-0.0939,-0.095,-0.0961,-0.1058,-0.1055,-0.1123,-0.1133,-0.1142,-0.111,0,0,0,0,0]},{"header":{"parameterUnit":"m.s-1","parameterCategory":2,"la1":30.2991,"la2":30.254,"lo1":-89.0895,"lo2":-89.0444,"dy":0.0017,"dx":0.0017,"nx":28,"ny":28,"refTime":"2025-03-24T03:00:00:Z","depth":"4","parameterNumber":3,"parameterNumberName":"V-component_of_CURRENTS"},"data":[0,0,0,0,0,0,0,0,0,0,0,0,0,0,0,0,0,0,0,0,0,0,0,0,0,0,0,0,0,0,0,0,0,0,0,0,0,0,0,0,0,0,0,0,0,0,0,0,0,0,0,0,0,0,0,0,0,0,-0.0063,-0.0063,0,-0.0078,-0.0079,-0.0079,-0.0071,-0.007,-0.0069,-0.0069,-0.0005,-0.0004,-0.0003,0,0,0,0,0,0,0,0,0,0,0,0,0,0.0028,0.0026,-0.0063,-0.0063,-0.0063,-0.0078,-0.0079,-0.0079,-0.0071,-0.007,-0.0069,-0.0069,-0.0006,-0.0005,-0.0003,0,0,0,0,0,0,0,0,0,0,0,0,0,-0.0004,0.0025,-0.0063,-0.006,-0.0059,-0.0078,-0.0079,-0.0079,-0.0071,-0.007,-0.0069,-0.0068,-0.0006,-0.0005,-0.0003,-0.0009,0,0,0.0002,0.0003,0,0,0,0,0,0,0,0,-0.0002,-0.0007,-0.006,-0.006,-0.006,-0.007,-0.0023,-0.0051,-0.0071,-0.0068,-0.0069,-0.0068,-0.0019,-0.0017,-0.0025,-0.0006,-0.0003,0.0003,0.0004,0.0004,0.0005,0,0,0,0,0,0,0,0.0,-0.0006,-0.0071,-0.006,-0.006,-0.0038,-0.0043,-0.0029,-0.0048,-0.0068,-0.0067,-0.0067,-0.0019,-0.0027,-0.0023,-0.0003,0.0003,0.0004,0.0005,0.0006,0.0032,0.0031,0,0,0,0,0,0,0.0001,-0.0005,-0.007,-0.0071,-0.0026,-0.0041,-0.0046,-0.0069,-0.005,-0.0047,-0.0068,-0.0066,-0.003,-0.0025,-0.0021,-0.001,0.0004,0.0006,0.0007,0.0032,0.0031,0.0031,0,0,0,0,0,0,0.0002,-0.0006,-0.007,-0.0035,-0.0041,-0.0044,-0.007,-0.007,-0.0073,-0.005,-0.0045,-0.0069,-0.0029,-0.0023,-0.001,-0.0007,0.0007,0.0008,0.0032,0.0032,0.0031,0.0002,0,0,0,0,0,0,0.0005,-0.0006,-0.0023,-0.0036,-0.0043,-0.0082,-0.007,-0.0071,-0.0073,-0.0071,-0.005,-0.0044,-0.0028,-0.0012,-0.0008,-0.0005,0.001,0.0033,0.0032,0.0031,0.0003,0.0,-0.0002,0,0,0,0,0,0.0008,-0.0024,-0.0025,-0.0032,-0.0068,-0.0083,-0.0085,-0.0083,-0.0074,-0.0081,-0.0065,-0.0044,-0.0013,-0.0012,-0.0006,-0.0002,0.0033,0.0032,0.0031,0.0004,0.0001,-0.0002,0,0,0,0,0,0,0.0004,-0.0026,-0.0027,-0.0068,-0.0072,-0.008,-0.0089,-0.0084,-0.0081,-0.0075,-0.0051,-0.0044,-0.0032,-0.0016,-0.0015,0.0002,0.0015,0.0015,-0.0008,-0.0011,-0.0014,-0.002,0.0011,0,0,0,0,0,-0.0005,-0.0037,-0.005,-0.008,-0.0084,-0.0085,-0.009,-0.0087,-0.0084,-0.0083,-0.0068,-0.005,-0.0034,-0.0021,-0.0009,0.0,0.0039,0.0006,0.0004,0.0001,-0.0001,0.0055,0.0058,0.0028,0.0028,0.0028,0,0,-0.0016,-0.0034,-0.0054,-0.0082,-0.0087,-0.0106,-0.0086,-0.0096,-0.0105,-0.0074,-0.0082,-0.006,-0.0035,-0.0027,-0.0019,-0.001,0.0032,0.0,-0.0002,-0.0003,0.0055,0.0058,0.006,0.0028,0.0028,0.0028,0,0,-0.0046,-0.0068,-0.0099,-0.0108,-0.0115,-0.0119,-0.012,-0.0127,-0.0121,-0.0127,-0.0101,-0.0081,-0.0068,-0.0045,-0.0032,-0.0042,0.0013,-0.0034,-0.0047,0.0007,0.0011,0.0014,0.0078,0.0088,-0.0031,-0.0031,-0.0031,0,-0.0052,-0.0103,-0.0106,-0.0131,-0.0143,-0.0126,-0.0151,-0.0148,-0.0147,-0.0134,-0.0134,-0.0099,-0.0079,-0.005,-0.0056,-0.0047,-0.0001,-0.0036,0.0005,0.0009,0.0013,0.0078,0.0089,-0.0032,-0.0032,-0.0032,-0.0032,0,-0.0108,-0.0139,-0.0156,-0.0189,-0.0197,-0.0217,-0.021,-0.0208,-0.0199,-0.0185,-0.0159,-0.0134,-0.0107,-0.0098,-0.0083,-0.0042,-0.0013,-0.0006,0.0015,0.0014,0.0083,0.0095,-0.0035,-0.0034,-0.0034,-0.0033,0,0,-0.0135,-0.0188,-0.0192,-0.021,-0.023,-0.024,-0.0248,-0.0243,-0.0231,-0.022,-0.0201,-0.0176,-0.0142,-0.0125,-0.009,-0.0048,0.0018,-0.0018,-0.0014,0.005,0.0156,0.012,0.013,0.0039,0.0041,0.0042,0.0198,0,-0.0173,-0.0238,-0.0251,-0.0293,-0.0321,-0.0307,-0.0314,-0.0298,-0.0274,-0.0249,-0.02,-0.0171,-0.0155,-0.0132,-0.0089,-0.0008,0.0045,-0.0024,0.0144,0.0149,0.012,0.014,0.0047,0.0207,0.0209,0.0211,0.0213,0,-0.0215,-0.0255,-0.0317,-0.0341,-0.0349,-0.0371,-0.0361,-0.036,-0.0309,-0.0284,-0.0238,-0.019,-0.0123,-0.0116,0.0027,-0.0013,0.0066,0.0126,0.0133,0.0115,0.0133,0.0205,0.0235,0.0233,0.0231,0.023,0.0228,0,-0.023,-0.0287,-0.0341,-0.0357,-0.0389,-0.04,-0.0406,-0.0371,-0.0352,-0.0294,-0.0266,-0.0182,-0.0129,-0.0031,0.0085,0.007,0.0246,0.0244,0.029,0.029,0.0291,0.0286,0.0345,0.0345,0.0345,0.0344,0.0344,0,-0.0262,-0.0296,-0.0355,-0.0384,-0.0423,-0.0426,-0.0435,-0.0418,-0.0379,-0.0343,-0.0279,-0.0225,-0.0104,0.0008,0.0102,0.0233,0.0268,0.0294,0.0325,0.0276,0.0267,0.0301,0.0293,0.035,0.0349,0.0348,0.0347,0,-0.0265,-0.0311,-0.0367,-0.0421,-0.0435,-0.0459,-0.0469,-0.0457,-0.0419,-0.037,-0.0348,-0.0232,-0.0088,0.0036,0.0213,0.0259,0.0383,0.0422,0.0375,0.04,0.0392,0.0381,0.0494,0.0494,0.0494,0.0494,0.0494,0,-0.0278,-0.0313,-0.0394,-0.0424,-0.0454,-0.0487,-0.0497,-0.0482,-0.0461,-0.0366,-0.0335,-0.0194,-0.0108,0.0131,0.0239,0.042,0.0427,0.0489,0.0416,0.0387,0.0406,0.0396,0.0385,0.0494,0.0494,0.0493,0.0493,0,-0.029,-0.0323,-0.0372,-0.0436,-0.0471,-0.0504,-0.0516,-0.0507,-0.0463,-0.043,-0.0295,-0.0174,-0.0017,0.014,0.0276,0.0397,0.044,0.0489,0.0489,0.0421,0.0388,0.0405,0.0395,0.0493,0.0493,0.0493,0.0493,0,-0.0288,-0.0325,-0.0383,-0.0431,-0.0481,-0.0502,-0.0516,-0.0477,-0.0451,-0.0353,-0.0303,-0.0135,-0.0034,0.0131,0.0259,0.0366,0.0377,0.0388,0.0393,0.0395,0.0291,0.023,0.0321,0,0,0,0,0,-0.0275,-0.0308,-0.0363,-0.0424,-0.0472,-0.0492,-0.051,-0.0511,-0.0479,-0.0382,-0.0341,-0.019,0.0008,0.0101,0.0205,0.0229,0.0372,0.0347,0.0381,0.0492,0.0493,0.0381,0,0,0,0,0,0,-0.027,-0.0318,-0.0355,-0.0399,-0.0432,-0.0473,-0.0487,-0.0469,-0.0414,-0.0362,-0.0246,-0.0184,0.0014,-0.0035,0.0209,0.0239,0.0266,0.0445,0.0446,0.0492,0.0492,0.0493,0.0377,0,0,0,0,0]}]]